Time,TemperatureF,DewpointF,PressureIn,WindDirection,WindDirectionDegrees,WindSpeedMPH,WindSpeedGustMPH,Humidity,HourlyPrecipIn,Conditions,Clouds,dailyrainin,SolarRadiationWatts/m^2,SoftwareType,DateUTC
2013-07-01 00:02:00,76.0,59.0,30.09,NE,48,9.0,36.0,54,-99.99,,,-99.99,0.000000,,2013-07-01 06:02:00,
2013-07-01 00:12:00,74.0,61.0,30.15,NNE,17,22.0,34.0,64,-99.99,,,-99.99,0.000000,,2013-07-01 06:12:00,
2013-07-01 01:01:00,68.0,62.0,30.18,North,8,24.0,35.0,82,-99.99,,,-99.99,0.000000,,2013-07-01 07:01:00,
2013-07-01 01:11:00,67.0,62.0,30.19,NNE,13,24.0,35.0,83,-99.99,,,-99.99,0.000000,,2013-07-01 07:11:00,
2013-07-01 01:22:00,66.0,61.0,30.18,North,3,26.0,37.0,82,-99.99,,,-99.99,0.000000,,2013-07-01 07:22:00,
2013-07-01 01:33:00,66.0,61.0,30.18,North,3,26.0,37.0,82,-99.99,,,-99.99,0.000000,,2013-07-01 07:33:00,
2013-07-01 01:43:00,66.0,60.0,30.19,North,356,23.0,31.0,81,-99.99,,,-99.99,0.000000,,2013-07-01 07:43:00,
2013-07-01 02:01:00,66.0,60.0,30.19,NNW,333,15.0,26.0,82,-99.99,,,-99.99,0.000000,,2013-07-01 08:01:00,
2013-07-01 02:11:00,66.0,60.0,30.19,NNW,345,14.0,21.0,80,-99.99,,,-99.99,0.000000,,2013-07-01 08:11:00,
2013-07-01 02:22:00,66.0,61.0,30.19,North,10,10.0,18.0,85,-99.99,,,-99.99,0.000000,,2013-07-01 08:22:00,
2013-07-01 02:33:00,66.0,61.0,30.19,North,10,10.0,18.0,85,-99.99,,,-99.99,0.000000,,2013-07-01 08:33:00,
2013-07-01 02:42:00,65.0,61.0,30.17,NNE,13,7.0,16.0,89,-99.99,,,-99.99,0.000000,,2013-07-01 08:42:00,
2013-07-01 03:02:00,64.0,62.0,30.15,East,79,7.0,15.0,92,-99.99,,,-99.99,0.000000,,2013-07-01 09:02:00,
2013-07-01 03:11:00,64.0,62.0,30.14,ENE,62,12.0,20.0,92,-99.99,,,-99.99,0.000000,,2013-07-01 09:11:00,
2013-07-01 03:22:00,64.0,61.0,30.16,NE,51,14.0,19.0,89,-99.99,,,-99.99,0.000000,,2013-07-01 09:22:00,
2013-07-01 03:34:00,64.0,61.0,30.16,NE,51,14.0,19.0,89,-99.99,,,-99.99,0.000000,,2013-07-01 09:34:00,
2013-07-01 03:43:00,65.0,62.0,30.16,ENE,60,13.0,19.0,89,-99.99,,,-99.99,0.000000,,2013-07-01 09:43:00,
2013-07-01 03:53:00,65.0,61.0,30.18,NNE,20,11.0,16.0,86,-99.99,,,-99.99,0.000000,,2013-07-01 09:53:00,
2013-07-01 04:03:00,65.0,61.0,30.18,NNE,20,11.0,16.0,86,-99.99,,,-99.99,0.000000,,2013-07-01 10:03:00,
2013-07-01 04:11:00,65.0,62.0,30.18,North,354,10.0,16.0,90,-99.99,,,-99.99,0.000000,,2013-07-01 10:11:00,
2013-07-01 04:22:00,65.0,62.0,30.19,NNW,336,7.0,11.0,91,-99.99,,,-99.99,0.000000,,2013-07-01 10:22:00,
2013-07-01 04:33:00,65.0,62.0,30.19,NNW,336,7.0,11.0,91,-99.99,,,-99.99,0.000000,,2013-07-01 10:33:00,
2013-07-01 04:42:00,65.0,62.0,30.20,NW,318,6.0,9.0,91,-99.99,,,-99.99,0.000000,,2013-07-01 10:42:00,
2013-07-01 04:52:00,65.0,62.0,30.20,NNW,329,4.0,7.0,90,-99.99,,,-99.99,0.000000,,2013-07-01 10:52:00,
2013-07-01 05:02:00,65.0,62.0,30.20,NNW,329,4.0,7.0,90,-99.99,,,-99.99,0.000000,,2013-07-01 11:02:00,
2013-07-01 05:11:00,65.0,62.0,30.19,North,352,4.0,7.0,89,-99.99,,,-99.99,0.000000,,2013-07-01 11:11:00,
2013-07-01 05:22:00,65.0,62.0,30.19,NNW,338,2.0,5.0,87,-99.99,,,-99.99,0.000000,,2013-07-01 11:22:00,
2013-07-01 05:33:00,65.0,62.0,30.19,NNW,338,2.0,5.0,87,-99.99,,,-99.99,0.000000,,2013-07-01 11:33:00,
2013-07-01 05:43:00,66.0,61.0,30.19,NE,49,4.0,7.0,85,-99.99,,,-99.99,0.000000,,2013-07-01 11:43:00,
2013-07-01 05:52:00,66.0,62.0,30.19,NE,39,6.0,9.0,86,-99.99,,,-99.99,0.000000,,2013-07-01 11:52:00,
2013-07-01 06:01:00,66.0,62.0,30.19,NE,39,6.0,9.0,86,-99.99,,,-99.99,0.000000,,2013-07-01 12:01:00,
2013-07-01 06:11:00,66.0,62.0,30.20,NNE,16,4.0,6.0,85,-99.99,,,-99.99,0.000000,,2013-07-01 12:11:00,
2013-07-01 06:22:00,66.0,62.0,30.21,East,81,3.0,5.0,86,-99.99,,,-99.99,0.000000,,2013-07-01 12:22:00,
2013-07-01 06:33:00,66.0,62.0,30.21,East,81,3.0,5.0,86,-99.99,,,-99.99,0.000000,,2013-07-01 12:33:00,
2013-07-01 06:43:00,66.0,62.0,30.21,ENE,61,2.0,5.0,87,-99.99,,,-99.99,1.390000,,2013-07-01 12:43:00,
2013-07-01 06:53:00,66.0,62.0,30.21,SSW,209,1.0,4.0,87,-99.99,,,-99.99,2.090000,,2013-07-01 12:53:00,
2013-07-01 07:01:00,66.0,62.0,30.21,SSW,209,1.0,4.0,87,-99.99,,,-99.99,2.090000,,2013-07-01 13:01:00,
2013-07-01 07:12:00,66.0,62.0,30.22,SW,226,1.0,3.0,86,-99.99,,,-99.99,3.490000,,2013-07-01 13:12:00,
2013-07-01 07:23:00,66.0,62.0,30.22,SW,226,2.0,4.0,85,-99.99,,,-99.99,10.460000,,2013-07-01 13:23:00,
2013-07-01 07:33:00,66.0,62.0,30.22,SW,226,2.0,4.0,85,-99.99,,,-99.99,10.460000,,2013-07-01 13:33:00,
2013-07-01 07:43:00,66.0,62.0,30.23,SW,217,2.0,4.0,86,-99.99,,,-99.99,18.129999,,2013-07-01 13:43:00,
2013-07-01 07:53:00,67.0,62.0,30.24,SSW,213,2.0,5.0,83,-99.99,,,-99.99,22.309999,,2013-07-01 13:53:00,
2013-07-01 08:01:00,67.0,62.0,30.24,SSW,213,2.0,5.0,83,-99.99,,,-99.99,22.309999,,2013-07-01 14:01:00,
2013-07-01 08:11:00,67.0,62.0,30.24,SW,214,2.0,4.0,82,-99.99,,,-99.99,31.379999,,2013-07-01 14:11:00,
2013-07-01 08:34:00,68.0,62.0,30.25,SSW,203,3.0,5.0,80,-99.99,,,-99.99,37.660000,,2013-07-01 14:34:00,
2013-07-01 08:43:00,68.0,62.0,30.25,SSW,206,4.0,6.0,79,-99.99,,,-99.99,41.840000,,2013-07-01 14:43:00,
2013-07-01 09:02:00,68.0,62.0,30.25,SSW,203,3.0,5.0,80,-99.99,,,-99.99,65.550003,,2013-07-01 15:02:00,
2013-07-01 09:11:00,69.0,62.0,30.24,SSW,203,4.0,6.0,79,-99.99,,,-99.99,96.930000,,2013-07-01 15:11:00,
2013-07-01 09:23:00,69.0,62.0,30.24,SSW,202,5.0,8.0,78,-99.99,,,-99.99,129.699997,,2013-07-01 15:23:00,
2013-07-01 09:34:00,69.0,62.0,30.24,SSW,202,5.0,8.0,78,-99.99,,,-99.99,129.699997,,2013-07-01 15:34:00,
2013-07-01 09:43:00,69.0,62.0,30.24,SSW,207,6.0,8.0,77,-99.99,,,-99.99,168.750000,,2013-07-01 15:43:00,
2013-07-01 09:53:00,70.0,62.0,30.24,SSW,208,6.0,10.0,76,-99.99,,,-99.99,211.990005,,2013-07-01 15:53:00,
2013-07-01 10:01:00,70.0,62.0,30.24,SSW,208,6.0,10.0,76,-99.99,,,-99.99,211.990005,,2013-07-01 16:01:00,
2013-07-01 10:11:00,70.0,61.0,30.25,South,181,4.0,8.0,74,-99.99,,,-99.99,202.919998,,2013-07-01 16:11:00,
2013-07-01 10:22:00,71.0,61.0,30.25,SE,142,3.0,8.0,70,-99.99,,,-99.99,275.450012,,2013-07-01 16:22:00,
2013-07-01 10:33:00,71.0,61.0,30.25,SE,142,3.0,8.0,70,-99.99,,,-99.99,275.450012,,2013-07-01 16:33:00,
2013-07-01 10:44:00,72.0,60.0,30.25,ESE,104,6.0,11.0,66,-99.99,,,-99.99,410.029999,,2013-07-01 16:44:00,
2013-07-01 10:53:00,72.0,60.0,30.25,ENE,77,7.0,11.0,65,-99.99,,,-99.99,525.090027,,2013-07-01 16:53:00,
2013-07-01 11:02:00,72.0,60.0,30.25,ENE,77,7.0,11.0,65,-99.99,,,-99.99,525.090027,,2013-07-01 17:02:00,
2013-07-01 11:12:00,73.0,59.0,30.25,East,90,10.0,15.0,60,-99.99,,,-99.99,635.270020,,2013-07-01 17:12:00,
2013-07-01 11:23:00,74.0,59.0,30.24,ESE,120,8.0,15.0,60,-99.99,,,-99.99,762.190002,,2013-07-01 17:23:00,
2013-07-01 11:33:00,74.0,59.0,30.24,ESE,120,8.0,15.0,60,-99.99,,,-99.99,762.190002,,2013-07-01 17:33:00,
2013-07-01 11:43:00,74.0,60.0,30.25,ESE,114,9.0,17.0,60,-99.99,,,-99.99,663.159973,,2013-07-01 17:43:00,
2013-07-01 12:02:00,75.0,59.0,30.24,ESE,121,8.0,16.0,58,-99.99,,,-99.99,787.989990,,2013-07-01 18:02:00,
2013-07-01 12:11:00,76.0,59.0,30.24,SE,133,8.0,15.0,56,-99.99,,,-99.99,790.080017,,2013-07-01 18:11:00,
2013-07-01 12:22:00,76.0,59.0,30.23,East,100,9.0,16.0,55,-99.99,,,-99.99,797.750000,,2013-07-01 18:22:00,
2013-07-01 12:33:00,76.0,59.0,30.23,East,100,9.0,16.0,55,-99.99,,,-99.99,797.750000,,2013-07-01 18:33:00,
2013-07-01 12:43:00,77.0,60.0,30.23,SSE,155,8.0,14.0,55,-99.99,,,-99.99,894.679993,,2013-07-01 18:43:00,
2013-07-01 12:53:00,77.0,60.0,30.23,ESE,121,8.0,19.0,55,-99.99,,,-99.99,769.859985,,2013-07-01 18:53:00,
2013-07-01 13:01:00,77.0,60.0,30.23,ESE,121,8.0,19.0,55,-99.99,,,-99.99,769.859985,,2013-07-01 19:01:00,
2013-07-01 13:11:00,77.0,60.0,30.22,ESE,122,7.0,22.0,54,-99.99,,,-99.99,780.320007,,2013-07-01 19:11:00,
2013-07-01 13:22:00,78.0,59.0,30.22,SE,145,9.0,17.0,52,-99.99,,,-99.99,705.000000,,2013-07-01 19:22:00,
2013-07-01 13:33:00,78.0,59.0,30.22,SE,145,9.0,17.0,52,-99.99,,,-99.99,705.000000,,2013-07-01 19:33:00,
2013-07-01 13:44:00,79.0,58.0,30.21,ESE,116,7.0,14.0,49,-99.99,,,-99.99,823.549988,,2013-07-01 19:44:00,
2013-07-01 14:01:00,79.0,58.0,30.20,SE,131,6.0,14.0,48,-99.99,,,-99.99,707.099976,,2013-07-01 20:01:00,
2013-07-01 14:11:00,79.0,58.0,30.19,SE,143,8.0,16.0,48,-99.99,,,-99.99,404.450012,,2013-07-01 20:11:00,
2013-07-01 14:22:00,80.0,58.0,30.19,SE,135,9.0,16.0,47,-99.99,,,-99.99,722.440002,,2013-07-01 20:22:00,
2013-07-01 14:34:00,80.0,58.0,30.19,SE,135,9.0,16.0,47,-99.99,,,-99.99,722.440002,,2013-07-01 20:34:00,
2013-07-01 14:43:00,80.0,58.0,30.18,SE,135,9.0,17.0,47,-99.99,,,-99.99,546.710022,,2013-07-01 20:43:00,
2013-07-01 14:52:00,80.0,57.0,30.17,SSE,157,7.0,14.0,46,-99.99,,,-99.99,641.549988,,2013-07-01 20:52:00,
2013-07-01 15:01:00,80.0,57.0,30.17,SSE,157,7.0,14.0,46,-99.99,,,-99.99,641.549988,,2013-07-01 21:01:00,
2013-07-01 15:11:00,80.0,57.0,30.17,SE,137,9.0,20.0,44,-99.99,,,-99.99,398.869995,,2013-07-01 21:11:00,
2013-07-01 15:34:00,81.0,56.0,30.16,SSE,149,10.0,17.0,42,-99.99,,,-99.99,900.950012,,2013-07-01 21:34:00,
2013-07-01 15:43:00,81.0,56.0,30.16,ESE,119,11.0,20.0,41,-99.99,,,-99.99,654.099976,,2013-07-01 21:43:00,
2013-07-01 16:01:00,82.0,56.0,30.15,SE,144,8.0,18.0,41,-99.99,,,-99.99,820.059998,,2013-07-01 22:01:00,
2013-07-01 16:11:00,81.0,55.0,30.14,SSE,156,7.0,14.0,41,-99.99,,,-99.99,523.000000,,2013-07-01 22:11:00,
2013-07-01 16:23:00,82.0,55.0,30.13,ESE,117,10.0,19.0,40,-99.99,,,-99.99,626.900024,,2013-07-01 22:23:00,
2013-07-01 16:33:00,82.0,55.0,30.13,ESE,117,10.0,19.0,40,-99.99,,,-99.99,626.900024,,2013-07-01 22:33:00,
2013-07-01 16:43:00,82.0,55.0,30.13,ESE,118,9.0,17.0,39,-99.99,,,-99.99,642.239990,,2013-07-01 22:43:00,
2013-07-01 16:53:00,83.0,55.0,30.12,SE,131,9.0,18.0,39,-99.99,,,-99.99,710.580017,,2013-07-01 22:53:00,
2013-07-01 17:01:00,83.0,55.0,30.12,SE,131,9.0,18.0,39,-99.99,,,-99.99,710.580017,,2013-07-01 23:01:00,
2013-07-01 17:11:00,83.0,55.0,30.11,SE,141,9.0,20.0,37,-99.99,,,-99.99,618.530029,,2013-07-01 23:11:00,
2013-07-01 17:22:00,83.0,54.0,30.11,SE,130,12.0,18.0,37,-99.99,,,-99.99,606.679993,,2013-07-01 23:22:00,
2013-07-01 17:33:00,83.0,54.0,30.11,SE,130,12.0,18.0,37,-99.99,,,-99.99,606.679993,,2013-07-01 23:33:00,
2013-07-01 17:44:00,83.0,54.0,30.10,ESE,110,7.0,13.0,36,-99.99,,,-99.99,567.630005,,2013-07-01 23:44:00,
2013-07-01 18:01:00,83.0,54.0,30.10,ESE,112,9.0,18.0,36,-99.99,,,-99.99,541.130005,,2013-07-02 00:01:00,
2013-07-01 18:12:00,83.0,53.0,30.10,ESE,120,8.0,18.0,35,-99.99,,,-99.99,228.029999,,2013-07-02 00:12:00,
2013-07-01 18:22:00,83.0,53.0,30.09,ESE,107,11.0,19.0,35,-99.99,,,-99.99,48.810001,,2013-07-02 00:22:00,
2013-07-01 18:33:00,83.0,53.0,30.09,ESE,107,11.0,19.0,35,-99.99,,,-99.99,48.810001,,2013-07-02 00:33:00,
2013-07-01 18:43:00,83.0,53.0,30.09,ESE,104,12.0,19.0,35,-99.99,,,-99.99,96.230003,,2013-07-02 00:43:00,
2013-07-01 19:01:00,83.0,53.0,30.10,ESE,108,11.0,17.0,35,-99.99,,,-99.99,141.559998,,2013-07-02 01:01:00,
2013-07-01 19:11:00,82.0,53.0,30.10,ESE,105,12.0,17.0,36,-99.99,,,-99.99,41.139999,,2013-07-02 01:11:00,
2013-07-01 19:22:00,83.0,53.0,30.10,ESE,114,9.0,15.0,36,-99.99,,,-99.99,221.750000,,2013-07-02 01:22:00,
2013-07-01 19:33:00,83.0,53.0,30.10,ESE,114,9.0,15.0,36,-99.99,,,-99.99,221.750000,,2013-07-02 01:33:00,
2013-07-01 19:43:00,82.0,54.0,30.11,ESE,110,11.0,16.0,36,-99.99,,,-99.99,230.820007,,2013-07-02 01:43:00,
2013-07-01 20:02:00,82.0,54.0,30.11,SE,126,9.0,15.0,37,-99.99,,,-99.99,152.020004,,2013-07-02 02:02:00,
2013-07-01 20:11:00,82.0,54.0,30.12,East,97,11.0,19.0,38,-99.99,,,-99.99,58.580002,,2013-07-02 02:11:00,
2013-07-01 20:22:00,81.0,54.0,30.13,East,95,11.0,19.0,40,-99.99,,,-99.99,12.550000,,2013-07-02 02:22:00,
2013-07-01 20:33:00,81.0,54.0,30.13,East,95,11.0,19.0,40,-99.99,,,-99.99,12.550000,,2013-07-02 02:33:00,
2013-07-01 20:43:00,80.0,55.0,30.14,East,98,13.0,18.0,42,-99.99,,,-99.99,4.180000,,2013-07-02 02:43:00,
2013-07-01 20:53:00,79.0,55.0,30.14,ESE,103,13.0,20.0,43,-99.99,,,-99.99,0.700000,,2013-07-02 02:53:00,
2013-07-01 21:01:00,79.0,55.0,30.14,ESE,103,13.0,20.0,43,-99.99,,,-99.99,0.700000,,2013-07-02 03:01:00,
2013-07-01 21:12:00,79.0,56.0,30.15,ESE,103,14.0,23.0,45,-99.99,,,-99.99,0.000000,,2013-07-02 03:12:00,
2013-07-01 21:24:00,78.0,56.0,30.16,ESE,115,14.0,22.0,45,-99.99,,,-99.99,0.000000,,2013-07-02 03:24:00,
2013-07-01 21:32:00,78.0,56.0,30.16,ESE,115,14.0,22.0,45,-99.99,,,-99.99,0.000000,,2013-07-02 03:32:00,
2013-07-01 21:43:00,78.0,56.0,30.17,ESE,113,12.0,19.0,46,-99.99,,,-99.99,0.000000,,2013-07-02 03:43:00,
2013-07-01 22:02:00,72.0,60.0,30.21,ENE,58,17.0,34.0,65,-99.99,,,-99.99,0.000000,,2013-07-02 04:02:00,
2013-07-01 22:11:00,67.0,62.0,30.20,ESE,106,8.0,17.0,83,-99.99,,,-99.99,0.000000,,2013-07-02 04:11:00,
2013-07-01 22:22:00,66.0,62.0,30.21,ESE,118,6.0,15.0,86,-99.99,,,-99.99,0.000000,,2013-07-02 04:22:00,
2013-07-01 22:32:00,66.0,62.0,30.21,ESE,118,6.0,15.0,86,-99.99,,,-99.99,0.000000,,2013-07-02 04:32:00,
2013-07-01 22:42:00,66.0,62.0,30.24,NW,316,6.0,11.0,85,-99.99,,,-99.99,0.000000,,2013-07-02 04:42:00,
2013-07-01 22:53:00,67.0,63.0,30.25,WNW,290,4.0,7.0,87,-99.99,,,-99.99,0.000000,,2013-07-02 04:53:00,
2013-07-01 23:01:00,67.0,63.0,30.25,WNW,290,4.0,7.0,87,-99.99,,,-99.99,0.000000,,2013-07-02 05:01:00,
2013-07-01 23:11:00,66.0,62.0,30.26,West,275,3.0,8.0,86,-99.99,,,-99.99,0.000000,,2013-07-02 05:11:00,
2013-07-01 23:22:00,68.0,61.0,30.25,ESE,119,3.0,7.0,78,-99.99,,,-99.99,0.000000,,2013-07-02 05:22:00,
2013-07-01 23:32:00,68.0,61.0,30.25,ESE,119,3.0,7.0,78,-99.99,,,-99.99,0.000000,,2013-07-02 05:32:00,
2013-07-01 23:43:00,68.0,61.0,30.24,South,184,4.0,7.0,79,-99.99,,,-99.99,0.000000,,2013-07-02 05:43:00,
2013-07-01 23:53:00,67.0,62.0,30.24,SW,232,4.0,6.0,82,-99.99,,,-99.99,0.000000,,2013-07-02 05:53:00,